owner,sensor,date,latitude,longitude,relative_humidity,qcFlag 
DISL,ioos:station:DISL:BSCA:1,2019-10-01T00:56:00Z,30.3288,-87.8293,80.4,11111222 
DISL,ioos:station:DISL:BSCA:1,2019-10-01T01:56:00Z,30.3288,-87.8293,78.2,11111222 
DISL,ioos:station:DISL:BSCA:1,2019-10-01T02:56:00Z,30.3288,-87.8293,77.63,11111222 
DISL,ioos:station:DISL:BSCA:1,2019-10-01T03:56:00Z,30.3288,-87.8293,77.59,11111222 
DISL,ioos:station:DISL:BSCA:1,2019-10-01T04:56:00Z,30.3288,-87.8293,92.5,11111222 
DISL,ioos:station:DISL:BSCA:1,2019-10-01T05:56:00Z,30.3288,-87.8293,93.0,11111222 
DISL,ioos:station:DISL:BSCA:1,2019-10-01T06:56:00Z,30.3288,-87.8293,94.7,11111222 
DISL,ioos:station:DISL:BSCA:1,2019-10-01T07:56:00Z,30.3288,-87.8293,94.9,11111222 
DISL,ioos:station:DISL:BSCA:1,2019-10-01T08:56:00Z,30.3288,-87.8293,95.1,11111222 
DISL,ioos:station:DISL:BSCA:1,2019-10-01T09:56:00Z,30.3288,-87.8293,96.4,11111222 
DISL,ioos:station:DISL:BSCA:1,2019-10-01T10:56:00Z,30.3288,-87.8293,93.8,11111222 
DISL,ioos:station:DISL:BSCA:1,2019-10-01T11:56:00Z,30.3288,-87.8293,97.6,11111222 
DISL,ioos:station:DISL:BSCA:1,2019-10-01T12:56:00Z,30.3288,-87.8293,94.4,11111222 
DISL,ioos:station:DISL:BSCA:1,2019-10-01T13:56:00Z,30.3288,-87.8293,68.39,11111222 
DISL,ioos:station:DISL:BSCA:1,2019-10-01T14:56:00Z,30.3288,-87.8293,62.12,11111222 
DISL,ioos:station:DISL:BSCA:1,2019-10-01T15:56:00Z,30.3288,-87.8293,59.05,11111222 
DISL,ioos:station:DISL:BSCA:1,2019-10-01T16:56:00Z,30.3288,-87.8293,52.35,11111222 
DISL,ioos:station:DISL:BSCA:1,2019-10-01T17:56:00Z,30.3288,-87.8293,73.89,11111222 
DISL,ioos:station:DISL:BSCA:1,2019-10-01T18:56:00Z,30.3288,-87.8293,65.81,11111222 
DISL,ioos:station:DISL:BSCA:1,2019-10-01T19:56:00Z,30.3288,-87.8293,64.22,11111222 
DISL,ioos:station:DISL:BSCA:1,2019-10-01T20:56:00Z,30.3288,-87.8293,58.54,11111222 
DISL,ioos:station:DISL:BSCA:1,2019-10-01T21:56:00Z,30.3288,-87.8293,58.98,11111222 
DISL,ioos:station:DISL:BSCA:1,2019-10-01T22:56:00Z,30.3288,-87.8293,66.62,11111222 
DISL,ioos:station:DISL:BSCA:1,2019-10-01T23:56:00Z,30.3288,-87.8293,71.66,11111222 
DISL,ioos:station:DISL:BSCA:1,2019-10-02T00:56:00Z,30.3288,-87.8293,74.44,11111222 
DISL,ioos:station:DISL:BSCA:1,2019-10-02T01:56:00Z,30.3288,-87.8293,74.38,11111222 
DISL,ioos:station:DISL:BSCA:1,2019-10-02T02:56:00Z,30.3288,-87.8293,72.52,11111222 
DISL,ioos:station:DISL:BSCA:1,2019-10-02T03:56:00Z,30.3288,-87.8293,74.65,11111222 
DISL,ioos:station:DISL:BSCA:1,2019-10-02T04:56:00Z,30.3288,-87.8293,78.37,11111222 
DISL,ioos:station:DISL:BSCA:1,2019-10-02T05:27:00Z,30.3288,-87.8293,79.76,11111222 
DISL,ioos:station:DISL:BSCA:1,2019-10-02T06:56:00Z,30.3288,-87.8293,90.5,11111222 
DISL,ioos:station:DISL:BSCA:1,2019-10-02T07:56:00Z,30.3288,-87.8293,91.4,11111222 
DISL,ioos:station:DISL:BSCA:1,2019-10-02T08:56:00Z,30.3288,-87.8293,92.4,11111222 
DISL,ioos:station:DISL:BSCA:1,2019-10-02T09:56:00Z,30.3288,-87.8293,92.7,11111222 
DISL,ioos:station:DISL:BSCA:1,2019-10-02T10:56:00Z,30.3288,-87.8293,92.2,11111222 
DISL,ioos:station:DISL:BSCA:1,2019-10-02T11:56:00Z,30.3288,-87.8293,92.3,11111222 
DISL,ioos:station:DISL:BSCA:1,2019-10-02T12:56:00Z,30.3288,-87.8293,90.4,11111222 
DISL,ioos:station:DISL:BSCA:1,2019-10-02T13:56:00Z,30.3288,-87.8293,83.3,11111222 
DISL,ioos:station:DISL:BSCA:1,2019-10-02T14:56:00Z,30.3288,-87.8293,76.4,11111222 
DISL,ioos:station:DISL:BSCA:1,2019-10-02T15:56:00Z,30.3288,-87.8293,64.09,11111222 
DISL,ioos:station:DISL:BSCA:1,2019-10-02T16:56:00Z,30.3288,-87.8293,59.38,11111222 
DISL,ioos:station:DISL:BSCA:1,2019-10-02T17:56:00Z,30.3288,-87.8293,80.3,11111222 
DISL,ioos:station:DISL:BSCA:1,2019-10-02T18:56:00Z,30.3288,-87.8293,82.6,11111222 
DISL,ioos:station:DISL:BSCA:1,2019-10-02T19:56:00Z,30.3288,-87.8293,68.11,11111222 
DISL,ioos:station:DISL:BSCA:1,2019-10-02T20:56:00Z,30.3288,-87.8293,71.05,11111222 
DISL,ioos:station:DISL:BSCA:1,2019-10-02T21:56:00Z,30.3288,-87.8293,69.16,11111222 
DISL,ioos:station:DISL:BSCA:1,2019-10-02T22:56:00Z,30.3288,-87.8293,66.55,11111222 
DISL,ioos:station:DISL:BSCA:1,2019-10-02T23:56:00Z,30.3288,-87.8293,66.15,11111222 
DISL,ioos:station:DISL:BSCA:1,2019-10-03T00:56:00Z,30.3288,-87.8293,69.51,11111222 
DISL,ioos:station:DISL:BSCA:1,2019-10-03T01:56:00Z,30.3288,-87.8293,72.38,11111222 
DISL,ioos:station:DISL:BSCA:1,2019-10-03T02:56:00Z,30.3288,-87.8293,71.0,11111222 
DISL,ioos:station:DISL:BSCA:1,2019-10-03T03:56:00Z,30.3288,-87.8293,72.45,11111222 
DISL,ioos:station:DISL:BSCA:1,2019-10-03T04:56:00Z,30.3288,-87.8293,71.74,11111222 
DISL,ioos:station:DISL:BSCA:1,2019-10-03T05:56:00Z,30.3288,-87.8293,72.52,11111222 
DISL,ioos:station:DISL:BSCA:1,2019-10-03T06:56:00Z,30.3288,-87.8293,72.59,11111222 
DISL,ioos:station:DISL:BSCA:1,2019-10-03T07:56:00Z,30.3288,-87.8293,90.2,11111222 
DISL,ioos:station:DISL:BSCA:1,2019-10-03T08:56:00Z,30.3288,-87.8293,90.0,11111222 
DISL,ioos:station:DISL:BSCA:1,2019-10-03T09:56:00Z,30.3288,-87.8293,89.4,11111222 
DISL,ioos:station:DISL:BSCA:1,2019-10-03T10:56:00Z,30.3288,-87.8293,90.5,11111222 
DISL,ioos:station:DISL:BSCA:1,2019-10-03T11:56:00Z,30.3288,-87.8293,91.7,11111222 
DISL,ioos:station:DISL:BSCA:1,2019-10-03T12:56:00Z,30.3288,-87.8293,87.0,11111222 
DISL,ioos:station:DISL:BSCA:1,2019-10-03T13:56:00Z,30.3288,-87.8293,76.92,11111222 
DISL,ioos:station:DISL:BSCA:1,2019-10-03T14:56:00Z,30.3288,-87.8293,70.0,11111222 
DISL,ioos:station:DISL:BSCA:1,2019-10-03T15:56:00Z,30.3288,-87.8293,70.0,11111222 
DISL,ioos:station:DISL:BSCA:1,2019-10-03T16:56:00Z,30.3288,-87.8293,66.89,11111222 
DISL,ioos:station:DISL:BSCA:1,2019-10-03T17:56:00Z,30.3288,-87.8293,63.71,11111222 
DISL,ioos:station:DISL:BSCA:1,2019-10-03T18:56:00Z,30.3288,-87.8293,57.29,11111222 
DISL,ioos:station:DISL:BSCA:1,2019-10-03T19:56:00Z,30.3288,-87.8293,60.74,11111222 
DISL,ioos:station:DISL:BSCA:1,2019-10-03T20:56:00Z,30.3288,-87.8293,62.36,11111222 
DISL,ioos:station:DISL:BSCA:1,2019-10-03T21:56:00Z,30.3288,-87.8293,64.32,11111222 
DISL,ioos:station:DISL:BSCA:1,2019-10-03T22:56:00Z,30.3288,-87.8293,62.63,11111222 
DISL,ioos:station:DISL:BSCA:1,2019-10-03T23:56:00Z,30.3288,-87.8293,66.28,11111222 
DISL,ioos:station:DISL:BSCA:1,2019-10-04T00:56:00Z,30.3288,-87.8293,69.47,11111222 
DISL,ioos:station:DISL:BSCA:1,2019-10-04T01:56:00Z,30.3288,-87.8293,68.73,11111222 
DISL,ioos:station:DISL:BSCA:1,2019-10-04T02:56:00Z,30.3288,-87.8293,72.15,11111222 
DISL,ioos:station:DISL:BSCA:1,2019-10-04T03:56:00Z,30.3288,-87.8293,74.07,11111222 
DISL,ioos:station:DISL:BSCA:1,2019-10-04T04:56:00Z,30.3288,-87.8293,78.23,11111222 
DISL,ioos:station:DISL:BSCA:1,2019-10-04T05:56:00Z,30.3288,-87.8293,76.31,11111222 
DISL,ioos:station:DISL:BSCA:1,2019-10-04T06:56:00Z,30.3288,-87.8293,75.36,11111222 
DISL,ioos:station:DISL:BSCA:1,2019-10-04T07:56:00Z,30.3288,-87.8293,78.1,11111222 
DISL,ioos:station:DISL:BSCA:1,2019-10-04T08:56:00Z,30.3288,-87.8293,85.6,11111222 
DISL,ioos:station:DISL:BSCA:1,2019-10-04T09:56:00Z,30.3288,-87.8293,89.2,11111222 
DISL,ioos:station:DISL:BSCA:1,2019-10-04T10:55:00Z,30.3288,-87.8293,90.8,11111222 
DISL,ioos:station:DISL:BSCA:1,2019-10-04T11:55:00Z,30.3288,-87.8293,89.8,11111222 
DISL,ioos:station:DISL:BSCA:1,2019-10-04T12:56:00Z,30.3288,-87.8293,89.5,11111222 
DISL,ioos:station:DISL:BSCA:1,2019-10-04T13:55:00Z,30.3288,-87.8293,82.5,11111222 
DISL,ioos:station:DISL:BSCA:1,2019-10-04T14:55:00Z,30.3288,-87.8293,74.1,11111222 
DISL,ioos:station:DISL:BSCA:1,2019-10-04T15:55:00Z,30.3288,-87.8293,68.41,11111222 
DISL,ioos:station:DISL:BSCA:1,2019-10-04T16:55:00Z,30.3288,-87.8293,64.05,11111222 
DISL,ioos:station:DISL:BSCA:1,2019-10-04T17:55:00Z,30.3288,-87.8293,66.89,11111222 
DISL,ioos:station:DISL:BSCA:1,2019-10-04T18:55:00Z,30.3288,-87.8293,68.72,11111222 
DISL,ioos:station:DISL:BSCA:1,2019-10-04T19:55:00Z,30.3288,-87.8293,66.52,11111222 
DISL,ioos:station:DISL:BSCA:1,2019-10-04T20:55:00Z,30.3288,-87.8293,63.34,11111222 
DISL,ioos:station:DISL:BSCA:1,2019-10-04T21:55:00Z,30.3288,-87.8293,66.01,11111222 
DISL,ioos:station:DISL:BSCA:1,2019-10-04T22:55:00Z,30.3288,-87.8293,66.82,11111222 
DISL,ioos:station:DISL:BSCA:1,2019-10-04T23:55:00Z,30.3288,-87.8293,64.05,11111222 
DISL,ioos:station:DISL:BSCA:1,2019-10-05T00:55:00Z,30.3288,-87.8293,68.8,11111222 
DISL,ioos:station:DISL:BSCA:1,2019-10-05T01:55:00Z,30.3288,-87.8293,74.62,11111222 
DISL,ioos:station:DISL:BSCA:1,2019-10-05T02:55:00Z,30.3288,-87.8293,72.25,11111222 
DISL,ioos:station:DISL:BSCA:1,2019-10-05T03:55:00Z,30.3288,-87.8293,73.43,11111222 
DISL,ioos:station:DISL:BSCA:1,2019-10-05T04:55:00Z,30.3288,-87.8293,79.65,11111222 
DISL,ioos:station:DISL:BSCA:1,2019-10-05T05:55:00Z,30.3288,-87.8293,84.3,11111222 
DISL,ioos:station:DISL:BSCA:1,2019-10-05T06:55:00Z,30.3288,-87.8293,79.89,11111222 
DISL,ioos:station:DISL:BSCA:1,2019-10-05T07:55:00Z,30.3288,-87.8293,79.28,11111222 
DISL,ioos:station:DISL:BSCA:1,2019-10-05T08:55:00Z,30.3288,-87.8293,79.72,11111222 
DISL,ioos:station:DISL:BSCA:1,2019-10-05T09:55:00Z,30.3288,-87.8293,81.3,11111222 
DISL,ioos:station:DISL:BSCA:1,2019-10-05T10:55:00Z,30.3288,-87.8293,82.9,11111222 
DISL,ioos:station:DISL:BSCA:1,2019-10-05T11:55:00Z,30.3288,-87.8293,84.9,11111222 
DISL,ioos:station:DISL:BSCA:1,2019-10-05T12:55:00Z,30.3288,-87.8293,81.0,11111222 
DISL,ioos:station:DISL:BSCA:1,2019-10-05T13:55:00Z,30.3288,-87.8293,77.59,11111222 
DISL,ioos:station:DISL:BSCA:1,2019-10-05T14:55:00Z,30.3288,-87.8293,68.35,11111222 
DISL,ioos:station:DISL:BSCA:1,2019-10-05T15:55:00Z,30.3288,-87.8293,63.04,11111222 
DISL,ioos:station:DISL:BSCA:1,2019-10-05T16:55:00Z,30.3288,-87.8293,63.51,11111222 
DISL,ioos:station:DISL:BSCA:1,2019-10-05T17:55:00Z,30.3288,-87.8293,62.46,11111222 
DISL,ioos:station:DISL:BSCA:1,2019-10-05T18:55:00Z,30.3288,-87.8293,69.67,11111222 
DISL,ioos:station:DISL:BSCA:1,2019-10-05T19:55:00Z,30.3288,-87.8293,71.15,11111222 
DISL,ioos:station:DISL:BSCA:1,2019-10-05T20:55:00Z,30.3288,-87.8293,68.58,11111222 
DISL,ioos:station:DISL:BSCA:1,2019-10-05T21:56:00Z,30.3288,-87.8293,68.08,11111222 
DISL,ioos:station:DISL:BSCA:1,2019-10-05T22:55:00Z,30.3288,-87.8293,72.84,11111222 
DISL,ioos:station:DISL:BSCA:1,2019-10-05T23:56:00Z,30.3288,-87.8293,75.08,11111222 
DISL,ioos:station:DISL:BSCA:1,2019-10-06T00:55:00Z,30.3288,-87.8293,74.01,11111222 
DISL,ioos:station:DISL:BSCA:1,2019-10-06T01:56:00Z,30.3288,-87.8293,84.9,11111222 
DISL,ioos:station:DISL:BSCA:1,2019-10-06T02:56:00Z,30.3288,-87.8293,84.9,11111222 
DISL,ioos:station:DISL:BSCA:1,2019-10-06T03:56:00Z,30.3288,-87.8293,77.76,11111222 
DISL,ioos:station:DISL:BSCA:1,2019-10-06T04:56:00Z,30.3288,-87.8293,79.69,11111222 
DISL,ioos:station:DISL:BSCA:1,2019-10-06T05:56:00Z,30.3288,-87.8293,87.5,11111222 
DISL,ioos:station:DISL:BSCA:1,2019-10-06T06:56:00Z,30.3288,-87.8293,92.9,11111222 
DISL,ioos:station:DISL:BSCA:1,2019-10-06T07:56:00Z,30.3288,-87.8293,94.1,11111222 
DISL,ioos:station:DISL:BSCA:1,2019-10-06T08:56:00Z,30.3288,-87.8293,94.6,11111222 
DISL,ioos:station:DISL:BSCA:1,2019-10-06T09:56:00Z,30.3288,-87.8293,90.4,11111222 
DISL,ioos:station:DISL:BSCA:1,2019-10-06T10:56:00Z,30.3288,-87.8293,91.6,11111222 
DISL,ioos:station:DISL:BSCA:1,2019-10-06T11:56:00Z,30.3288,-87.8293,91.9,11111222 
DISL,ioos:station:DISL:BSCA:1,2019-10-06T12:56:00Z,30.3288,-87.8293,92.6,11111222 
DISL,ioos:station:DISL:BSCA:1,2019-10-06T13:56:00Z,30.3288,-87.8293,84.3,11111222 
DISL,ioos:station:DISL:BSCA:1,2019-10-06T14:56:00Z,30.3288,-87.8293,89.1,11111222 
DISL,ioos:station:DISL:BSCA:1,2019-10-06T15:56:00Z,30.3288,-87.8293,88.3,11111222 
DISL,ioos:station:DISL:BSCA:1,2019-10-06T16:56:00Z,30.3288,-87.8293,86.2,11111222 
DISL,ioos:station:DISL:BSCA:1,2019-10-06T17:56:00Z,30.3288,-87.8293,82.6,11111222 
DISL,ioos:station:DISL:BSCA:1,2019-10-06T18:56:00Z,30.3288,-87.8293,77.46,11111222 
DISL,ioos:station:DISL:BSCA:1,2019-10-06T19:56:00Z,30.3288,-87.8293,75.97,11111222 
DISL,ioos:station:DISL:BSCA:1,2019-10-06T20:56:00Z,30.3288,-87.8293,75.97,11111222 
DISL,ioos:station:DISL:BSCA:1,2019-10-06T21:56:00Z,30.3288,-87.8293,77.56,11111222 
DISL,ioos:station:DISL:BSCA:1,2019-10-06T22:56:00Z,30.3288,-87.8293,78.84,11111222 
DISL,ioos:station:DISL:BSCA:1,2019-10-06T23:56:00Z,30.3288,-87.8293,77.52,11111222 
DISL,ioos:station:DISL:BSCA:1,2019-10-07T00:56:00Z,30.3288,-87.8293,78.81,11111222 
DISL,ioos:station:DISL:BSCA:1,2019-10-07T01:56:00Z,30.3288,-87.8293,85.8,11111222 
DISL,ioos:station:DISL:BSCA:1,2019-10-07T02:56:00Z,30.3288,-87.8293,85.1,11111222 
DISL,ioos:station:DISL:BSCA:1,2019-10-07T03:56:00Z,30.3288,-87.8293,83.8,11111222 
DISL,ioos:station:DISL:BSCA:1,2019-10-07T04:56:00Z,30.3288,-87.8293,82.4,11111222 
DISL,ioos:station:DISL:BSCA:1,2019-10-07T05:56:00Z,30.3288,-87.8293,80.4,11111222 
DISL,ioos:station:DISL:BSCA:1,2019-10-07T06:56:00Z,30.3288,-87.8293,81.9,11111222 
DISL,ioos:station:DISL:BSCA:1,2019-10-07T07:56:00Z,30.3288,-87.8293,79.55,11111222 
DISL,ioos:station:DISL:BSCA:1,2019-10-07T08:56:00Z,30.3288,-87.8293,84.8,11111222 
DISL,ioos:station:DISL:BSCA:1,2019-10-07T09:56:00Z,30.3288,-87.8293,86.5,11111222 
DISL,ioos:station:DISL:BSCA:1,2019-10-07T10:56:00Z,30.3288,-87.8293,88.5,11111222 
DISL,ioos:station:DISL:BSCA:1,2019-10-07T11:56:00Z,30.3288,-87.8293,91.0,11111222 
DISL,ioos:station:DISL:BSCA:1,2019-10-07T12:56:00Z,30.3288,-87.8293,89.3,11111222 
DISL,ioos:station:DISL:BSCA:1,2019-10-07T18:55:00Z,30.3288,-87.8293,74.33,11111222 
DISL,ioos:station:DISL:BSCA:1,2019-10-07T19:55:00Z,30.3288,-87.8293,73.08,11111222 
DISL,ioos:station:DISL:BSCA:1,2019-10-07T20:55:00Z,30.3288,-87.8293,77.11,11111222 
DISL,ioos:station:DISL:BSCA:1,2019-10-07T21:55:00Z,30.3288,-87.8293,81.3,11111222 
DISL,ioos:station:DISL:BSCA:1,2019-10-07T22:55:00Z,30.3288,-87.8293,80.9,11111222 
DISL,ioos:station:DISL:BSCA:1,2019-10-07T23:55:00Z,30.3288,-87.8293,75.63,11111222 
DISL,ioos:station:DISL:BSCA:1,2019-10-08T00:55:00Z,30.3288,-87.8293,74.31,11111222 
DISL,ioos:station:DISL:BSCA:1,2019-10-08T01:55:00Z,30.3288,-87.8293,73.77,11111222 
DISL,ioos:station:DISL:BSCA:1,2019-10-08T02:55:00Z,30.3288,-87.8293,76.58,11111222 
DISL,ioos:station:DISL:BSCA:1,2019-10-08T03:55:00Z,30.3288,-87.8293,69.68,11111222 
DISL,ioos:station:DISL:BSCA:1,2019-10-08T04:55:00Z,30.3288,-87.8293,67.72,11111222 
DISL,ioos:station:DISL:BSCA:1,2019-10-08T05:55:00Z,30.3288,-87.8293,72.35,11111222 
DISL,ioos:station:DISL:BSCA:1,2019-10-08T06:55:00Z,30.3288,-87.8293,77.33,11111222 
DISL,ioos:station:DISL:BSCA:1,2019-10-08T07:55:00Z,30.3288,-87.8293,81.3,11111222 
DISL,ioos:station:DISL:BSCA:1,2019-10-08T08:55:00Z,30.3288,-87.8293,85.3,11111222 
DISL,ioos:station:DISL:BSCA:1,2019-10-08T09:55:00Z,30.3288,-87.8293,87.1,11111222 
DISL,ioos:station:DISL:BSCA:1,2019-10-08T10:55:00Z,30.3288,-87.8293,89.1,11111222 
DISL,ioos:station:DISL:BSCA:1,2019-10-08T11:55:00Z,30.3288,-87.8293,90.1,11111222 
DISL,ioos:station:DISL:BSCA:1,2019-10-08T12:55:00Z,30.3288,-87.8293,87.1,11111222 
DISL,ioos:station:DISL:BSCA:1,2019-10-08T13:56:00Z,30.3288,-87.8293,84.0,11111222 
DISL,ioos:station:DISL:BSCA:1,2019-10-08T14:55:00Z,30.3288,-87.8293,78.3,11111222 
DISL,ioos:station:DISL:BSCA:1,2019-10-08T15:55:00Z,30.3288,-87.8293,72.82,11111222 
DISL,ioos:station:DISL:BSCA:1,2019-10-08T16:55:00Z,30.3288,-87.8293,71.63,11111222 
DISL,ioos:station:DISL:BSCA:1,2019-10-08T17:55:00Z,30.3288,-87.8293,79.81,11111222 
DISL,ioos:station:DISL:BSCA:1,2019-10-08T18:55:00Z,30.3288,-87.8293,79.75,11111222 
DISL,ioos:station:DISL:BSCA:1,2019-10-08T19:55:00Z,30.3288,-87.8293,74.85,11111222 
DISL,ioos:station:DISL:BSCA:1,2019-10-08T20:55:00Z,30.3288,-87.8293,68.31,11111222 
DISL,ioos:station:DISL:BSCA:1,2019-10-08T21:55:00Z,30.3288,-87.8293,65.88,11111222 
DISL,ioos:station:DISL:BSCA:1,2019-10-08T22:55:00Z,30.3288,-87.8293,63.27,11111222 
DISL,ioos:station:DISL:BSCA:1,2019-10-08T23:55:00Z,30.3288,-87.8293,67.88,11111222 
DISL,ioos:station:DISL:BSCA:1,2019-10-09T00:55:00Z,30.3288,-87.8293,67.88,11111222 
DISL,ioos:station:DISL:BSCA:1,2019-10-09T01:55:00Z,30.3288,-87.8293,69.61,11111222 
DISL,ioos:station:DISL:BSCA:1,2019-10-09T02:55:00Z,30.3288,-87.8293,70.49,11111222 
DISL,ioos:station:DISL:BSCA:1,2019-10-09T03:55:00Z,30.3288,-87.8293,71.81,11111222 
DISL,ioos:station:DISL:BSCA:1,2019-10-09T04:55:00Z,30.3288,-87.8293,73.74,11111222 
DISL,ioos:station:DISL:BSCA:1,2019-10-09T05:55:00Z,30.3288,-87.8293,75.19,11111222 
DISL,ioos:station:DISL:BSCA:1,2019-10-09T06:55:00Z,30.3288,-87.8293,73.44,11111222 
DISL,ioos:station:DISL:BSCA:1,2019-10-09T07:55:00Z,30.3288,-87.8293,74.18,11111222 
DISL,ioos:station:DISL:BSCA:1,2019-10-09T08:55:00Z,30.3288,-87.8293,76.52,11111222 
DISL,ioos:station:DISL:BSCA:1,2019-10-09T09:56:00Z,30.3288,-87.8293,79.91,11111222 
DISL,ioos:station:DISL:BSCA:1,2019-10-09T10:55:00Z,30.3288,-87.8293,81.5,11111222 
DISL,ioos:station:DISL:BSCA:1,2019-10-09T11:56:00Z,30.3288,-87.8293,83.4,11111222 
DISL,ioos:station:DISL:BSCA:1,2019-10-09T12:56:00Z,30.3288,-87.8293,81.8,11111222 
DISL,ioos:station:DISL:BSCA:1,2019-10-09T13:56:00Z,30.3288,-87.8293,76.51,11111222 
DISL,ioos:station:DISL:BSCA:1,2019-10-09T14:56:00Z,30.3288,-87.8293,73.3,11111222 
DISL,ioos:station:DISL:BSCA:1,2019-10-09T15:56:00Z,30.3288,-87.8293,75.01,11111222 
DISL,ioos:station:DISL:BSCA:1,2019-10-09T16:56:00Z,30.3288,-87.8293,79.84,11111222 
DISL,ioos:station:DISL:BSCA:1,2019-10-09T17:56:00Z,30.3288,-87.8293,75.58,11111222 
DISL,ioos:station:DISL:BSCA:1,2019-10-09T18:56:00Z,30.3288,-87.8293,72.71,11111222 
DISL,ioos:station:DISL:BSCA:1,2019-10-09T19:56:00Z,30.3288,-87.8293,76.9,11111222 
DISL,ioos:station:DISL:BSCA:1,2019-10-09T20:56:00Z,30.3288,-87.8293,75.01,11111222 
DISL,ioos:station:DISL:BSCA:1,2019-10-09T21:56:00Z,30.3288,-87.8293,74.37,11111222 
DISL,ioos:station:DISL:BSCA:1,2019-10-09T22:56:00Z,30.3288,-87.8293,71.86,11111222 
DISL,ioos:station:DISL:BSCA:1,2019-10-09T23:56:00Z,30.3288,-87.8293,73.67,11111222 
DISL,ioos:station:DISL:BSCA:1,2019-10-10T02:56:00Z,30.3288,-87.8293,73.09,11111222 
DISL,ioos:station:DISL:BSCA:1,2019-10-10T03:56:00Z,30.3288,-87.8293,73.6,11111222 
DISL,ioos:station:DISL:BSCA:1,2019-10-10T04:56:00Z,30.3288,-87.8293,75.7,11111222 
DISL,ioos:station:DISL:BSCA:1,2019-10-10T05:56:00Z,30.3288,-87.8293,74.24,11111222 
DISL,ioos:station:DISL:BSCA:1,2019-10-10T06:56:00Z,30.3288,-87.8293,74.07,11111222 
DISL,ioos:station:DISL:BSCA:1,2019-10-10T07:56:00Z,30.3288,-87.8293,72.11,11111222 
DISL,ioos:station:DISL:BSCA:1,2019-10-10T08:56:00Z,30.3288,-87.8293,76.48,11111222 
DISL,ioos:station:DISL:BSCA:1,2019-10-10T09:56:00Z,30.3288,-87.8293,83.7,11111222 
DISL,ioos:station:DISL:BSCA:1,2019-10-10T10:56:00Z,30.3288,-87.8293,84.4,11111222 
DISL,ioos:station:DISL:BSCA:1,2019-10-10T11:56:00Z,30.3288,-87.8293,93.3,11111222 
DISL,ioos:station:DISL:BSCA:1,2019-10-10T12:56:00Z,30.3288,-87.8293,83.2,11111222 
DISL,ioos:station:DISL:BSCA:1,2019-10-10T13:56:00Z,30.3288,-87.8293,81.9,11111222 
DISL,ioos:station:DISL:BSCA:1,2019-10-10T14:56:00Z,30.3288,-87.8293,79.49,11111222 
DISL,ioos:station:DISL:BSCA:1,2019-10-10T15:56:00Z,30.3288,-87.8293,71.88,11111222 
DISL,ioos:station:DISL:BSCA:1,2019-10-10T16:55:00Z,30.3288,-87.8293,73.46,11111222 
DISL,ioos:station:DISL:BSCA:1,2019-10-10T17:55:00Z,30.3288,-87.8293,72.68,11111222 
DISL,ioos:station:DISL:BSCA:1,2019-10-10T18:55:00Z,30.3288,-87.8293,70.78,11111222 
DISL,ioos:station:DISL:BSCA:1,2019-10-10T19:55:00Z,30.3288,-87.8293,70.68,11111222 
DISL,ioos:station:DISL:BSCA:1,2019-10-10T20:55:00Z,30.3288,-87.8293,71.7,11111222 
DISL,ioos:station:DISL:BSCA:1,2019-10-10T21:55:00Z,30.3288,-87.8293,68.69,11111222 
DISL,ioos:station:DISL:BSCA:1,2019-10-10T22:55:00Z,30.3288,-87.8293,75.69,11111222 
DISL,ioos:station:DISL:BSCA:1,2019-10-10T23:55:00Z,30.3288,-87.8293,76.2,11111222 
DISL,ioos:station:DISL:BSCA:1,2019-10-11T00:55:00Z,30.3288,-87.8293,74.92,11111222 
DISL,ioos:station:DISL:BSCA:1,2019-10-11T01:55:00Z,30.3288,-87.8293,78.2,11111222 
DISL,ioos:station:DISL:BSCA:1,2019-10-11T02:55:00Z,30.3288,-87.8293,82.1,11111222 
DISL,ioos:station:DISL:BSCA:1,2019-10-11T03:55:00Z,30.3288,-87.8293,83.0,11111222 
DISL,ioos:station:DISL:BSCA:1,2019-10-11T04:55:00Z,30.3288,-87.8293,87.4,11111222 
DISL,ioos:station:DISL:BSCA:1,2019-10-11T05:55:00Z,30.3288,-87.8293,87.5,11111222 
DISL,ioos:station:DISL:BSCA:1,2019-10-11T06:55:00Z,30.3288,-87.8293,67.41,11111222 
DISL,ioos:station:DISL:BSCA:1,2019-10-11T07:55:00Z,30.3288,-87.8293,66.87,11111222 
DISL,ioos:station:DISL:BSCA:1,2019-10-11T08:55:00Z,30.3288,-87.8293,65.65,11111222 
DISL,ioos:station:DISL:BSCA:1,2019-10-11T09:55:00Z,30.3288,-87.8293,80.0,11111222 
DISL,ioos:station:DISL:BSCA:1,2019-10-11T10:55:00Z,30.3288,-87.8293,78.74,11111222 
DISL,ioos:station:DISL:BSCA:1,2019-10-11T11:55:00Z,30.3288,-87.8293,81.5,11111222 
DISL,ioos:station:DISL:BSCA:1,2019-10-11T12:55:00Z,30.3288,-87.8293,83.0,11111222 
DISL,ioos:station:DISL:BSCA:1,2019-10-11T13:55:00Z,30.3288,-87.8293,84.2,11111222 
DISL,ioos:station:DISL:BSCA:1,2019-10-11T14:55:00Z,30.3288,-87.8293,75.97,11111222 
DISL,ioos:station:DISL:BSCA:1,2019-10-11T15:55:00Z,30.3288,-87.8293,77.01,11111222 
DISL,ioos:station:DISL:BSCA:1,2019-10-11T16:55:00Z,30.3288,-87.8293,80.7,11111222 
DISL,ioos:station:DISL:BSCA:1,2019-10-11T17:55:00Z,30.3288,-87.8293,76.9,11111222 
DISL,ioos:station:DISL:BSCA:1,2019-10-11T18:55:00Z,30.3288,-87.8293,80.7,11111222 
DISL,ioos:station:DISL:BSCA:1,2019-10-11T19:55:00Z,30.3288,-87.8293,78.6,11111222 
DISL,ioos:station:DISL:BSCA:1,2019-10-11T20:55:00Z,30.3288,-87.8293,80.2,11111222 
DISL,ioos:station:DISL:BSCA:1,2019-10-11T21:55:00Z,30.3288,-87.8293,80.3,11111222 
DISL,ioos:station:DISL:BSCA:1,2019-10-11T22:55:00Z,30.3288,-87.8293,82.2,11111222 
DISL,ioos:station:DISL:BSCA:1,2019-10-11T23:55:00Z,30.3288,-87.8293,81.9,11111222 
DISL,ioos:station:DISL:BSCA:1,2019-10-12T00:55:00Z,30.3288,-87.8293,80.8,11111222 
DISL,ioos:station:DISL:BSCA:1,2019-10-12T01:55:00Z,30.3288,-87.8293,81.6,11111222 
DISL,ioos:station:DISL:BSCA:1,2019-10-12T02:55:00Z,30.3288,-87.8293,79.65,11111222 
DISL,ioos:station:DISL:BSCA:1,2019-10-12T03:55:00Z,30.3288,-87.8293,79.08,11111222 
DISL,ioos:station:DISL:BSCA:1,2019-10-12T04:55:00Z,30.3288,-87.8293,88.3,11111222 
DISL,ioos:station:DISL:BSCA:1,2019-10-12T05:55:00Z,30.3288,-87.8293,77.96,11111222 
DISL,ioos:station:DISL:BSCA:1,2019-10-12T06:55:00Z,30.3288,-87.8293,89.6,11111222 
DISL,ioos:station:DISL:BSCA:1,2019-10-12T07:55:00Z,30.3288,-87.8293,92.9,11111222 
DISL,ioos:station:DISL:BSCA:1,2019-10-12T08:55:00Z,30.3288,-87.8293,93.4,11111222 
DISL,ioos:station:DISL:BSCA:1,2019-10-12T09:55:00Z,30.3288,-87.8293,90.3,11111222 
DISL,ioos:station:DISL:BSCA:1,2019-10-12T10:55:00Z,30.3288,-87.8293,95.1,11111222 
DISL,ioos:station:DISL:BSCA:1,2019-10-12T11:55:00Z,30.3288,-87.8293,95.2,11111222 
DISL,ioos:station:DISL:BSCA:1,2019-10-12T12:55:00Z,30.3288,-87.8293,97.7,11111222 
DISL,ioos:station:DISL:BSCA:1,2019-10-12T13:56:00Z,30.3288,-87.8293,97.1,11111222 
DISL,ioos:station:DISL:BSCA:1,2019-10-12T14:55:00Z,30.3288,-87.8293,95.2,11111222 
DISL,ioos:station:DISL:BSCA:1,2019-10-12T15:26:00Z,30.3288,-87.8293,95.1,11111222 
DISL,ioos:station:DISL:BSCA:1,2019-10-12T16:56:00Z,30.3288,-87.8293,92.2,11111222 
DISL,ioos:station:DISL:BSCA:1,2019-10-12T17:56:00Z,30.3288,-87.8293,88.8,11111222 
DISL,ioos:station:DISL:BSCA:1,2019-10-12T18:56:00Z,30.3288,-87.8293,82.4,11111222 
DISL,ioos:station:DISL:BSCA:1,2019-10-12T19:56:00Z,30.3288,-87.8293,79.96,11111222 
DISL,ioos:station:DISL:BSCA:1,2019-10-12T20:56:00Z,30.3288,-87.8293,80.4,11111222 
DISL,ioos:station:DISL:BSCA:1,2019-10-12T21:56:00Z,30.3288,-87.8293,80.0,11111222 
DISL,ioos:station:DISL:BSCA:1,2019-10-12T22:56:00Z,30.3288,-87.8293,81.9,11111222 
DISL,ioos:station:DISL:BSCA:1,2019-10-12T23:56:00Z,30.3288,-87.8293,84.0,11111222 
DISL,ioos:station:DISL:BSCA:1,2019-10-13T00:56:00Z,30.3288,-87.8293,83.8,11111222 
DISL,ioos:station:DISL:BSCA:1,2019-10-13T01:56:00Z,30.3288,-87.8293,85.1,11111222 
DISL,ioos:station:DISL:BSCA:1,2019-10-13T02:56:00Z,30.3288,-87.8293,87.3,11111222 
DISL,ioos:station:DISL:BSCA:1,2019-10-13T03:56:00Z,30.3288,-87.8293,88.4,11111222 
DISL,ioos:station:DISL:BSCA:1,2019-10-13T04:56:00Z,30.3288,-87.8293,89.7,11111222 